Flag for Germany Weather past 2 weeks in Greven, North Rhine-Westphalia, Germany

Now
46 °F

Passing clouds.


Feels Like: 44 °F
Forecast: 44 / 61 °F
Wind: 6 mph from Northwest

Location: Muenster / Osnabrueck

Current Time: May 26, 2015 at 6:04:27 AM

Latest Report: May 26, 2015 at 5:20 AM


Visibility: N/A

Pressure: 30.04 "Hg

Humidity: 87%

Dew point: 43 °F

Location of GrevenLocation

Historic Weather in Greven — Graph

°F

Greven temperature yesterday

Maximum temperature yesterday: 63 °F (at 2:50 PM)
Minimum temperature yesterday: 48 °F (at 1:20 AM)
Average temperature yesterday: 55 °F

Past Weeks' High & Low Weather Summary

 TemperatureHumidityPressure
High77 °F (May 11, 3:20 PM)100% (May 13, 6:20 AM)30.33 "Hg (May 13, 6:20 AM)
Low37 °F (May 16, 5:20 AM)32% (May 11, 3:50 PM)29.59 "Hg (May 18, 7:20 PM)
Average54 °F70%30.05 "Hg
* Reported May 11 4:20 AM — May 26 4:20 AM, Greven, Weather by CustomWeather, © 2015

Note: Actual official high and low records may vary slightly from our data, if they occured in-between our weather recording intervals... More about our weather records

Advertising

Greven weather history for previous 24 hours

 ConditionsComfort  
Time TempWeatherWind HumidityBarometerVisibility
4:20 AM
Tue, May 26
50 °FPassing clouds.7 mph82%30.04 "HgN/A
3:50 AM50 °FPassing clouds.7 mph76%30.04 "HgN/A
3:20 AM50 °FPassing clouds.8 mph82%30.01 "HgN/A
2:50 AM50 °FPassing clouds.7 mph82%30.01 "HgN/A
2:20 AM50 °FPassing clouds.6 mph82%30.01 "HgN/A
1:50 AM50 °FPassing clouds.5 mph82%30.01 "HgN/A
1:20 AM52 °FPassing clouds.5 mph77%30.01 "HgN/A
12:50 AM52 °FPassing clouds.5 mph77%30.01 "HgN/A
12:20 AM52 °FClear.5 mph77%30.01 "Hg10 mi
11:50 PM
Mon, May 25
52 °FPassing clouds.8 mph72%30.01 "HgN/A
11:20 PM52 °FPartly cloudy.7 mph77%30.01 "HgN/A
10:20 PM54 °FPartly sunny.9 mph72%30.01 "HgN/A
9:50 PM54 °FPartly sunny.6 mph67%29.98 "HgN/A
9:20 PM55 °FBroken clouds.7 mph63%29.98 "HgN/A
8:50 PM55 °FSunny.6 mph59%29.98 "Hg10 mi
8:20 PM55 °FSunny.8 mph59%29.98 "Hg10 mi
7:50 PM57 °FPartly sunny.7 mph55%29.95 "HgN/A
7:20 PM57 °FPartly sunny.9 mph51%29.95 "HgN/A
6:50 PM59 °FPartly sunny.8 mph51%29.95 "HgN/A
6:20 PM59 °FPartly sunny.10 mph48%29.95 "HgN/A
5:50 PM59 °FPartly sunny.10 mph48%29.95 "HgN/A
5:20 PM61 °FPartly sunny.10 mph45%29.95 "HgN/A
4:50 PM61 °FPartly sunny.10 mph42%29.95 "HgN/A
4:20 PM63 °FPartly sunny.10 mph42%29.95 "HgN/A
3:50 PM61 °FPartly sunny.10 mph39%29.95 "HgN/A
3:20 PM63 °FBroken clouds.13 mph39%29.95 "HgN/A
2:50 PM63 °FBroken clouds.13 mph39%29.95 "HgN/A
2:20 PM61 °FPartly sunny.10 mph48%29.95 "HgN/A
1:50 PM61 °FPartly sunny.7 mph52%29.95 "HgN/A
1:20 PM61 °FPartly sunny.12 mph52%29.95 "HgN/A
12:50 PM57 °FBroken clouds.6 mph59%29.98 "HgN/A
12:20 PM57 °FPartly sunny.7 mph63%29.98 "HgN/A
11:50 AM55 °FBroken clouds.6 mph72%29.98 "HgN/A
11:20 AM54 °FBroken clouds.6 mph77%29.98 "HgN/A
10:50 AM52 °FBroken clouds.8 mph77%29.98 "HgN/A
10:20 AM52 °FPartly sunny.6 mph77%29.98 "HgN/A
9:50 AM54 °FBroken clouds.5 mph88%29.98 "HgN/A
9:20 AM52 °FPartly sunny.7 mph94%29.98 "Hg4 mi
8:50 AM52 °FDrizzle. Broken clouds.5 mph100%29.98 "Hg1 mi
8:20 AM52 °FDrizzle. Broken clouds.3 mph100%29.98 "Hg2 mi
7:50 AM52 °FDrizzle. Partly sunny.5 mph100%29.98 "Hg2 mi
7:20 AM52 °FDrizzle. Partly sunny.8 mph88%29.98 "Hg3 mi
6:50 AM54 °FBroken clouds.5 mph77%29.98 "HgN/A
6:20 AM54 °FPassing clouds.5 mph72%29.98 "HgN/A
Weather by CustomWeather, © 2015

See weather overviewHow to use our weather pages